Ann Arbor, MI

2:36 AM EST on February 08, 2016 (GMT -0500)
Ann Arbor Municipal

Weather History for KARB - February, 2013

Change the Weather History Date:

Thursday, February 14, 2013

  Actual Average Record
Temperature  
Mean Temperature 32 °F -  
Max Temperature 39 °F 31 °F 46 °F (2005)
Min Temperature 26 °F 16 °F 1 °F (2003)
Degree Days  
Heating Degree Days 32    
Moisture  
Dew Point 30 °F    
Average Humidity 83    
Maximum Humidity 96    
Minimum Humidity 68    
Precipitation  
Precipitation 0.00 in - - ()
Sea Level Pressure  
Sea Level Pressure 29.75 in    
Wind  
Wind Speed 9 mph (SW)    
Max Wind Speed 24 mph    
Max Gust Speed 34 mph    
Visibility 6 miles    
Events Snow    
Averages and records for this station are not official NWS values.
T = Trace of Precipitation, MM = Missing Value Source: NWS Daily Summary

Daily Weather History Graph

Daily Weather History Graph

Search for Another Location

Airport or City:

Trip Planner

Search our weather history database for the weather conditions in past years. The results will help you decide how hot, cold, wet, or windy it might be!

Date:

Astronomy

Feb. 14, 2013 Rise Set
Actual Time 7:32 AM EST 6:06 PM EST
Civil Twilight 7:03 AM EST 6:35 PM EST
Nautical Twilight 6:30 AM EST 7:08 PM EST
Astronomical Twilight 5:58 AM EST 7:40 PM EST
Moon 9:27 AM EST (2/14) 11:15 PM EST (2/14)
Length of Visible Light 11h 31m
Length of Day
10h 34m
Waxing Crescent, 21% of the Moon is Illuminated
Feb 14
Waxing Crescent
Feb 17
First Quarter
Feb 25
Full
Mar 4
Last Quarter
Mar 11
New

Hourly Weather History & Observations

Time (EST) Temp. Windchill Dew Point Humidity Pressure Visibility Wind Dir Wind Speed Gust Speed Precip Events Conditions
12:53 AM 28.0 °F 24.2 °F 26.1 °F 92% 29.79 in 5.0 mi SSW 3.5 mph - N/A   Mostly Cloudy
1:53 AM 28.9 °F 25.2 °F 27.0 °F 92% 29.79 in 5.0 mi SSW 3.5 mph - N/A   Overcast
2:53 AM 27.0 °F 23.0 °F 25.0 °F 92% 29.79 in 5.0 mi SSW 3.5 mph - N/A   Clear
3:53 AM 26.1 °F 21.9 °F 25.0 °F 96% 29.78 in 4.0 mi SSW 3.5 mph - N/A   Clear
4:53 AM 27.0 °F 20.5 °F 25.0 °F 92% 29.78 in 5.0 mi SSW 5.8 mph - N/A   Clear
5:26 AM 28.4 °F 23.3 °F 26.6 °F 93% 29.75 in 5.0 mi SW 4.6 mph - N/A   Mostly Cloudy
5:49 AM 28.4 °F 22.2 °F 26.6 °F 93% 29.75 in 5.0 mi SSW 5.8 mph - N/A   Scattered Clouds
5:53 AM 28.0 °F 21.7 °F 27.0 °F 96% 29.78 in 5.0 mi SSW 5.8 mph - N/A   Mostly Cloudy
6:53 AM 30.0 °F 24.1 °F 28.0 °F 92% 29.78 in 5.0 mi SSW 5.8 mph - N/A   Overcast
7:53 AM 30.9 °F 25.2 °F 28.0 °F 89% 29.78 in 4.0 mi SSW 5.8 mph - N/A   Overcast
8:53 AM 32.0 °F 25.6 °F 30.0 °F 92% 29.79 in 4.0 mi South 6.9 mph - N/A   Overcast
9:53 AM 34.0 °F 28.0 °F 30.9 °F 89% 29.78 in 4.0 mi SSW 6.9 mph - N/A   Overcast
10:12 AM 35.6 °F 28.0 °F 32.0 °F 87% 29.75 in 4.0 mi South 10.4 mph - N/A   Overcast
10:53 AM 35.1 °F 28.6 °F 32.0 °F 89% 29.76 in 2.0 mi South 8.1 mph - 0.00 in Snow Light Snow
10:57 AM 35.6 °F 29.2 °F 32.0 °F 87% 29.73 in 1.8 mi South 8.1 mph 18.4 mph 0.00 in Snow Light Snow
11:18 AM 35.6 °F 29.2 °F 33.8 °F 93% 29.72 in 2.5 mi South 8.1 mph - 0.00 in Snow Light Snow
11:31 AM 35.6 °F 28.0 °F 33.8 °F 93% 29.72 in 3.0 mi South 10.4 mph 17.3 mph 0.00 in   Overcast
11:53 AM 36.0 °F 28.0 °F 34.0 °F 93% 29.74 in 4.0 mi South 11.5 mph 18.4 mph 0.00 in   Overcast
12:25 PM 37.4 °F 27.5 °F 33.8 °F 87% 29.71 in 4.0 mi SSW 18.4 mph 24.2 mph N/A   Overcast
12:53 PM 37.9 °F 28.5 °F 33.1 °F 83% 29.72 in 4.0 mi South 17.3 mph 21.9 mph N/A   Haze
1:53 PM 37.9 °F 30.0 °F 33.1 °F 83% 29.71 in 5.0 mi SSW 12.7 mph 19.6 mph N/A   Haze
2:53 PM 39.0 °F 31.8 °F 33.1 °F 79% 29.70 in 6.0 mi SW 11.5 mph - N/A   Haze
3:10 PM 39.2 °F 32.5 °F 33.8 °F 81% 29.68 in 6.0 mi SW 10.4 mph 21.9 mph N/A   Haze
3:53 PM 39.0 °F 31.8 °F 34.0 °F 82% 29.70 in 7.0 mi SW 11.5 mph - N/A   Overcast
4:18 PM 39.2 °F 33.0 °F 33.8 °F 81% 29.68 in 7.0 mi SW 9.2 mph - N/A   Overcast
4:46 PM 39.2 °F 33.0 °F 33.8 °F 81% 29.69 in 7.0 mi SW 9.2 mph - N/A   Overcast
4:53 PM 39.0 °F 31.8 °F 33.1 °F 79% 29.71 in 8.0 mi SW 11.5 mph - N/A   Overcast
5:01 PM 39.2 °F 29.8 °F 32.0 °F 75% 29.69 in 9.0 mi WSW 18.4 mph 27.6 mph N/A   Overcast
5:08 PM 39.2 °F 29.3 °F 30.2 °F 70% 29.69 in 10.0 mi WSW 20.7 mph 29.9 mph N/A   Overcast
5:36 PM 39.2 °F 29.3 °F 30.2 °F 70% 29.71 in 10.0 mi West 20.7 mph 31.1 mph N/A   Overcast
6:53 PM 37.9 °F 29.6 °F 28.0 °F 68% 29.77 in 10.0 mi WSW 13.8 mph - N/A   Overcast
7:34 PM 37.4 °F 27.2 °F 28.4 °F 70% 29.76 in 10.0 mi WSW 19.6 mph 25.3 mph N/A   Overcast
7:53 PM 37.9 °F 27.9 °F 28.9 °F 70% 29.79 in 10.0 mi West 19.6 mph 26.5 mph N/A   Overcast
8:53 PM 36.0 °F 24.2 °F 28.0 °F 73% 29.81 in 10.0 mi West 24.2 mph 34.5 mph N/A   Overcast
9:07 PM 35.6 °F 24.8 °F 26.6 °F 70% 29.80 in 10.0 mi WNW 19.6 mph 31.1 mph N/A   Overcast
9:23 PM 35.6 °F 24.0 °F 26.6 °F 70% 29.80 in 10.0 mi West 23.0 mph 29.9 mph N/A   Overcast
9:53 PM 35.1 °F 24.8 °F 27.0 °F 72% 29.84 in 10.0 mi West 17.3 mph - N/A   Overcast
10:53 PM 35.1 °F 25.5 °F 27.0 °F 72% 29.85 in 10.0 mi West 15.0 mph 24.2 mph N/A   Overcast
11:53 PM 34.0 °F 23.4 °F 27.0 °F 75% 29.86 in 10.0 mi West 17.3 mph 26.5 mph N/A   Overcast